Laconia, NH

9:56 PM EDT on July 22, 2017 (GMT -0400)
Laconia Municipal

Weather History for KLCI - February, 2014

Change the Weather History Date:

Tuesday, February 25, 2014

  Actual Average Record
Temperature  
Mean Temperature 16 °F -  
Max Temperature 21 °F 36 °F 64 °F (2017)
Min Temperature 10 °F 18 °F 0 °F (1993)
Degree Days  
Heating Degree Days 50    
Moisture  
Dew Point 3 °F    
Average Humidity 56    
Maximum Humidity 79    
Minimum Humidity 42    
Precipitation  
Precipitation 0.00 in - - ()
Sea Level Pressure  
Sea Level Pressure 29.87 in    
Wind  
Wind Speed 7 mph (West)    
Max Wind Speed 18 mph    
Max Gust Speed 33 mph    
Visibility 10 miles    
Events      
Averages and records for this station are not official NWS values.
T = Trace of Precipitation, MM = Missing Value Source: NWS Daily Summary

Daily Weather History Graph

Daily Weather History Graph

Search for Another Location

Airport or City:

Trip Planner

Search our weather history database for the weather conditions in past years. The results will help you decide how hot, cold, wet, or windy it might be!

Date:

Astronomy

Feb. 25, 2014 Rise Set
Actual Time 6:28 AM EST 5:29 PM EST
Civil Twilight 5:59 AM EST 5:58 PM EST
Nautical Twilight 5:26 AM EST 6:31 PM EST
Astronomical Twilight 4:53 AM EST 7:04 PM EST
Moon 3:26 AM EST (2/25) 1:26 PM EST (2/25)
Length of Visible Light 11h 58m
Length of Day
11h 00m
Waning Crescent, 18% of the Moon is Illuminated
Feb 25
Waning Crescent
Mar 1
New
Mar 8
First Quarter
Mar 16
Full
Mar 23
Last Quarter

Hourly Weather History & Observations

Time (EST) Temp. Windchill Dew Point Humidity Pressure Visibility Wind Dir Wind Speed Gust Speed Precip Events Conditions
12:15 AM 15.8 °F 5.1 °F 5.0 °F 62% 29.88 in 10.0 mi WSW 8.1 mph - N/A   Clear
12:35 AM 15.8 °F - 3.2 °F 58% 29.88 in 10.0 mi Calm Calm - N/A   Clear
12:55 AM 15.8 °F 8.6 °F 3.2 °F 58% 29.88 in 10.0 mi WSW 4.6 mph - N/A   Clear
1:15 AM 15.8 °F 7.2 °F 5.0 °F 62% 29.88 in 10.0 mi WSW 5.8 mph - N/A   Clear
1:35 AM 15.8 °F 7.2 °F 3.2 °F 58% 29.87 in 10.0 mi WSW 5.8 mph - N/A   Clear
1:55 AM 15.8 °F 6.1 °F 3.2 °F 58% 29.87 in 10.0 mi WSW 6.9 mph - N/A   Clear
2:15 AM 15.8 °F 8.6 °F 5.0 °F 62% 29.87 in 10.0 mi SW 4.6 mph - N/A   Clear
2:35 AM 15.8 °F 8.6 °F 3.2 °F 58% 29.88 in 10.0 mi WSW 4.6 mph - N/A   Clear
2:55 AM 15.8 °F 10.2 °F 3.2 °F 58% 29.88 in 10.0 mi WSW 3.5 mph - N/A   Scattered Clouds
3:15 AM 15.8 °F 10.2 °F 5.0 °F 62% 29.88 in 10.0 mi West 3.5 mph - N/A   Mostly Cloudy
3:35 AM 15.8 °F 6.1 °F 3.2 °F 58% 29.88 in 10.0 mi West 6.9 mph - N/A   Scattered Clouds
3:55 AM 15.8 °F 6.1 °F 3.2 °F 58% 29.87 in 10.0 mi West 6.9 mph - N/A   Clear
4:15 AM 15.8 °F 8.6 °F 3.2 °F 58% 29.88 in 10.0 mi West 4.6 mph - N/A   Clear
4:35 AM 15.8 °F 8.6 °F 3.2 °F 58% 29.89 in 10.0 mi West 4.6 mph - N/A   Clear
4:55 AM 14.0 °F 3.9 °F 3.2 °F 62% 29.89 in 10.0 mi West 6.9 mph - N/A   Clear
5:15 AM 14.0 °F 5.1 °F 3.2 °F 62% 29.88 in 10.0 mi WSW 5.8 mph - N/A   Clear
5:35 AM 12.2 °F 0.7 °F 3.2 °F 67% 29.89 in 10.0 mi SW 8.1 mph - N/A   Clear
5:55 AM 12.2 °F 1.7 °F 3.2 °F 67% 29.88 in 10.0 mi WSW 6.9 mph - N/A   Clear
6:15 AM 12.2 °F 1.7 °F 3.2 °F 67% 29.88 in 10.0 mi WSW 6.9 mph - N/A   Clear
6:35 AM 12.2 °F 4.3 °F 3.2 °F 67% 29.89 in 10.0 mi West 4.6 mph - N/A   Clear
6:55 AM 12.2 °F - 3.2 °F 67% 29.89 in 10.0 mi Calm Calm - N/A   Clear
7:15 AM 14.0 °F 6.5 °F 3.2 °F 62% 29.89 in 10.0 mi West 4.6 mph - N/A   Clear
7:35 AM 14.0 °F 3.9 °F 3.2 °F 62% 29.90 in 10.0 mi West 6.9 mph - N/A   Clear
7:55 AM 15.8 °F 5.1 °F 3.2 °F 58% 29.89 in 10.0 mi West 8.1 mph - N/A   Clear
8:15 AM 15.8 °F 5.1 °F 1.4 °F 53% 29.89 in 10.0 mi West 8.1 mph - N/A   Clear
8:35 AM 15.8 °F 5.1 °F 1.4 °F 53% 29.89 in 10.0 mi West 8.1 mph 17.3 mph N/A   Partly Cloudy
8:55 AM 15.8 °F 2.1 °F 1.4 °F 53% 29.90 in 10.0 mi West 12.7 mph 25.3 mph N/A   Partly Cloudy
9:15 AM 17.6 °F 5.0 °F -0.4 °F 45% 29.90 in 10.0 mi WSW 11.5 mph 18.4 mph N/A   Partly Cloudy
9:35 AM 17.6 °F 5.7 °F 1.4 °F 49% 29.90 in 10.0 mi West 10.4 mph 17.3 mph N/A   Scattered Clouds
9:55 AM 17.6 °F 5.7 °F 1.4 °F 49% 29.91 in 10.0 mi WSW 10.4 mph - N/A   Scattered Clouds
10:15 AM 17.6 °F 5.7 °F 1.4 °F 49% 29.89 in 10.0 mi West 10.4 mph 18.4 mph N/A   Partly Cloudy
10:35 AM 17.6 °F 7.3 °F 1.4 °F 49% 29.88 in 10.0 mi West 8.1 mph - N/A   Partly Cloudy
10:55 AM 19.4 °F 6.0 °F 1.4 °F 46% 29.87 in 10.0 mi WSW 13.8 mph - N/A   Partly Cloudy
11:15 AM 19.4 °F 6.0 °F 1.4 °F 46% 29.87 in 10.0 mi West 13.8 mph - N/A   Mostly Cloudy
11:35 AM 19.4 °F 6.6 °F 1.4 °F 46% 29.86 in 10.0 mi West 12.7 mph 18.4 mph N/A   Mostly Cloudy
11:55 AM 21.2 °F 8.9 °F 3.2 °F 46% 29.85 in 10.0 mi WNW 12.7 mph 19.6 mph N/A   Scattered Clouds
12:15 PM 19.4 °F 6.6 °F 3.2 °F 49% 29.85 in 10.0 mi West 12.7 mph 18.4 mph N/A   Partly Cloudy
12:35 PM 21.2 °F 11.7 °F 1.4 °F 42% 29.84 in 10.0 mi West 8.1 mph 17.3 mph N/A   Mostly Cloudy
12:55 PM 21.2 °F 10.1 °F 1.4 °F 42% 29.83 in 10.0 mi West 10.4 mph 18.4 mph N/A   Mostly Cloudy
1:15 PM 21.2 °F 8.9 °F 1.4 °F 42% 29.83 in 10.0 mi West 12.7 mph 23.0 mph N/A   Scattered Clouds
1:35 PM 21.2 °F 7.3 °F 1.4 °F 42% 29.83 in 10.0 mi West 16.1 mph 27.6 mph N/A   Partly Cloudy
1:55 PM 21.2 °F 7.8 °F 3.2 °F 46% 29.83 in 10.0 mi West 15.0 mph 20.7 mph N/A   Partly Cloudy
2:15 PM 21.2 °F 8.9 °F 3.2 °F 46% 29.82 in 10.0 mi West 12.7 mph 19.6 mph N/A   Scattered Clouds
2:35 PM 21.2 °F 6.8 °F 1.4 °F 42% 29.82 in 10.0 mi WSW 17.3 mph 26.5 mph N/A   Mostly Cloudy
2:55 PM 21.2 °F 6.4 °F 5.0 °F 50% 29.82 in 10.0 mi West 18.4 mph 28.8 mph N/A   Mostly Cloudy
3:15 PM 21.2 °F 7.8 °F 3.2 °F 46% 29.83 in 10.0 mi West 15.0 mph 33.4 mph N/A   Mostly Cloudy
3:35 PM 21.2 °F 8.9 °F 3.2 °F 46% 29.82 in 10.0 mi West 12.7 mph 16.1 mph N/A   Mostly Cloudy
3:55 PM 21.2 °F 7.3 °F 1.4 °F 42% 29.83 in 10.0 mi West 16.1 mph 27.6 mph N/A   Mostly Cloudy
4:15 PM 21.2 °F 8.3 °F 1.4 °F 42% 29.83 in 10.0 mi West 13.8 mph 21.9 mph N/A   Mostly Cloudy
4:35 PM 21.2 °F 10.9 °F 1.4 °F 42% 29.83 in 10.0 mi West 9.2 mph 21.9 mph N/A   Mostly Cloudy
4:55 PM 19.4 °F 7.2 °F 3.2 °F 49% 29.83 in 10.0 mi West 11.5 mph - N/A   Mostly Cloudy
5:15 PM 19.4 °F 10.4 °F 3.2 °F 49% 29.83 in 10.0 mi West 6.9 mph - N/A   Mostly Cloudy
5:35 PM 19.4 °F - 1.4 °F 46% 29.84 in 10.0 mi Calm Calm - N/A   Scattered Clouds
5:55 PM 19.4 °F 12.8 °F 1.4 °F 46% 29.85 in 10.0 mi WSW 4.6 mph - N/A   Partly Cloudy
6:15 PM 17.6 °F 9.3 °F 1.4 °F 49% 29.85 in 10.0 mi West 5.8 mph - N/A   Clear
6:35 PM 17.6 °F 7.3 °F 3.2 °F 53% 29.85 in 10.0 mi West 8.1 mph - N/A   Clear
6:55 PM 17.6 °F 9.3 °F 3.2 °F 53% 29.86 in 10.0 mi West 5.8 mph - N/A   Clear
7:15 PM 17.6 °F 10.7 °F 3.2 °F 53% 29.86 in 10.0 mi West 4.6 mph - N/A   Clear
7:35 PM 15.8 °F 8.6 °F 3.2 °F 58% 29.85 in 10.0 mi WSW 4.6 mph - N/A   Clear
7:55 PM 15.8 °F 10.2 °F 3.2 °F 58% 29.85 in 10.0 mi West 3.5 mph - N/A   Clear
8:15 PM 15.8 °F - 3.2 °F 58% 29.86 in 10.0 mi Calm Calm - N/A   Clear
8:35 PM 12.2 °F - 3.2 °F 67% 29.86 in 10.0 mi Calm Calm - N/A   Clear
8:55 PM 14.0 °F - 3.2 °F 62% 29.86 in 10.0 mi Calm Calm - N/A   Clear
9:15 PM 12.2 °F 4.3 °F 3.2 °F 67% 29.87 in 10.0 mi West 4.6 mph - N/A   Clear
9:35 PM 12.2 °F 6.1 °F 3.2 °F 67% 29.87 in 10.0 mi West 3.5 mph - N/A   Clear
9:55 PM 12.2 °F 6.1 °F 3.2 °F 67% 29.87 in 10.0 mi West 3.5 mph - N/A   Clear
10:15 PM 12.2 °F 6.1 °F 3.2 °F 67% 29.88 in 10.0 mi WSW 3.5 mph - N/A   Clear
10:35 PM 10.4 °F 2.2 °F 3.2 °F 73% 29.88 in 10.0 mi WSW 4.6 mph - N/A   Clear
10:55 PM 10.4 °F 0.8 °F 3.2 °F 73% 29.88 in 10.0 mi WSW 5.8 mph - N/A   Clear
11:15 PM 10.4 °F 2.2 °F 3.2 °F 73% 29.88 in 10.0 mi WSW 4.6 mph - N/A   Partly Cloudy
11:35 PM 10.4 °F 4.0 °F 5.0 °F 79% 29.87 in 10.0 mi West 3.5 mph - N/A   Partly Cloudy
11:55 PM 10.4 °F 4.0 °F 3.2 °F 73% 29.87 in 10.0 mi West 3.5 mph - N/A   Clear